This demonstration page uses our WeatherBlox Daily Observations layout. Learn more.

Left ArrowRight Arrow

Hourly Observations for November 29, 2016

Temp ( °F °C ) Dew Point ( °F °C ) Humidity (%) Winds ( mph kmh ) Pressure ( in mb ) Visibility ( mi km ) Precip ( " mm )
12:59 am 00:59 Cloudy 57 13.9 47 8.3 69 69 SSE 10 17 30.08 1019 10 16 0.00 0.00
1:59 am 01:59 Cloudy 58 14.4 47 8.3 67 67 S 9 15 30.08 1019 10 16 0.00 0.00
2:59 am 02:59 Cloudy 59 15 48 8.9 67 67 SSE 8 13 30.04 1017 10 16 0.00 0.00
3:59 am 03:59 Cloudy 60 15.6 49 9.4 67 67 SSE 10 17 30.01 1016 10 16 0.00 0.00
4:59 am 04:59 Cloudy 61 16.1 50 10 67 67 SSE 13 20 30.01 1016 10 16 0.00 0.00
5:59 am 05:59 Mostly Cloudy 61 16.1 51 10.6 70 70 S 10 17 30.01 1016 10 16 0.00 0.00
6:59 am 06:59 Mostly Cloudy 61 16.1 51 10.6 70 70 SSE 9 15 30.01 1016 10 16 0.00 0.00
7:59 am 07:59 Cloudy 63 17.2 52 11.1 68 68 S 8 13 30.02 1017 10 16 0.00 0.00
8:59 am 08:59 Cloudy 64 17.8 53 11.7 68 68 SSE 13 20 30.00 1016 10 16 0.00 0.00
9:59 am 09:59 Cloudy 66 18.9 54 12.2 65 65 S 16 26 30.00 1016 10 16 0.00 0.00
10:59 am 10:59 Cloudy 68 20 55 12.8 63 63 S 17 28 29.98 1015 10 16 0.00 0.00
11:59 am 11:59 Mostly Cloudy 71 21.7 57 13.9 61 61 S 17 28 29.95 1014 9 14 0.00 0.00
12:59 pm 12:59 Mostly Cloudy 72 22.2 57 13.9 59 59 S 15 24 29.91 1013 9 14 0.00 0.00
1:59 pm 13:59 Mostly Cloudy 73 22.8 58 14.4 59 59 S 15 24 29.90 1013 9 14 0.00 0.00
2:59 pm 14:59 Cloudy 72 22.2 59 15 64 64 SSW 21 33 29.91 1013 9 14 0.00 0.00
3:59 pm 15:59 Cloudy with Light Rain 71 21.7 61 16.1 71 71 S 14 22 29.92 1013 6 10 0.00 0.03
4:59 pm 16:59 Cloudy 68 20 63 17.2 84 84 S 13 20 29.93 1014 9 14 0.00 0.03
5:59 pm 17:59 Mostly Cloudy 68 20 63 17.2 84 84 S 15 24 29.93 1014 9 14 0.00 0.00
6:59 pm 18:59 Mostly Cloudy 68 20 63 17.2 84 84 SSW 12 19 29.95 1014 9 14 0.00 0.00
7:59 pm 19:59 Mostly Cloudy 68 20 63 17.2 84 84 S 10 17 29.95 1014 8 13 0.00 0.00
8:59 pm 20:59 Mostly Clear 67 19.4 63 17.2 87 87 S 8 13 29.96 1015 8 13 0.00 0.00
9:59 pm 21:59 Mostly Clear 66 18.9 62 16.7 87 87 SSW 8 13 29.98 1015 8 13 0.00 0.00
10:59 pm 22:59 Mostly Cloudy 66 18.9 62 16.7 87 87 SSW 9 15 29.98 1015 8 13 0.00 0.00
11:59 pm 23:59 Partly Cloudy 66 18.9 63 17.2 90 90 S 8 13 29.98 1015 8 13 0.00 0.00

Powered by AerisWeather